This demonstration page uses our WeatherBlox Daily Observations layout. Learn more.

Left ArrowRight Arrow

Hourly Observations for May 31, 2021

Temp ( °F °C ) Dew Point ( °F °C ) Humidity (%) Winds ( mph kmh ) Pressure ( in mb ) Visibility ( mi km ) Precip ( " mm )
12:56 am 00:56 Clear 54 12.2 51 10.6 90 90 Calm 30.23 1024 10 16 0.00 0.00
1:56 am 01:56 Clear 52 11.1 51 10.6 97 97 N 3 6 30.22 1023 10 16 0.00 0.00
2:56 am 02:56 Mostly Cloudy 52 11.1 51 10.6 97 97 Calm 30.22 1023 10 16 0.00 0.00
3:56 am 03:56 Mostly Clear 51 10.6 50 10 96 96 N 6 9 30.22 1023 10 16 0.00 0.00
4:56 am 04:56 Partly Cloudy 52 11.1 50 10 93 93 NNW 3 6 30.23 1024 10 16 0.00 0.00
5:56 am 05:56 Mostly Clear 51 10.6 50 10 96 96 NNW 3 6 30.24 1024 10 16 0.00 0.00
6:56 am 06:56 Sunny 50 10 50 10 100 100 N 3 6 30.24 1024 9 14 0.00 0.00
7:56 am 07:56 Sunny 53 11.7 51 10.6 93 93 N 6 9 30.26 1025 10 16 0.00 0.00
8:40 am 08:40 Mostly Sunny 54 12 52 11 94 94 N 7 11 30.25 1024 10 16 0.00 0.00
8:56 am 08:56 Mostly Cloudy 55 12.8 52 11.1 90 90 NNW 5 7 30.26 1025 10 16 0.00 0.00
9:36 am 09:36 Partly Cloudy 55 13 52 11 88 88 Calm 30.24 1024 10 16 0.00 0.00
9:56 am 09:56 Mostly Sunny 58 14.4 53 11.7 84 84 VRB 3 6 30.25 1024 10 16 0.00 0.00
10:56 am 10:56 Mostly Sunny 61 16.1 54 12.2 78 78 NE 6 9 30.25 1024 10 16 0.00 0.00
11:27 am 11:27 Mostly Cloudy 61 16 54 12 77 77 NE 6 9 30.22 1023 10 16 0.00 0.00
11:56 am 11:56 Mostly Cloudy 63 17.2 54 12.2 73 73 ENE 5 7 30.24 1024 10 16 0.00 0.00
12:19 pm 12:19 Partly Cloudy 63 17 54 12 73 73 E 5 7 30.20 1023 10 16 0.00 0.00
12:56 pm 12:56 Mostly Sunny 64 17.8 54 12.2 70 70 VRB 5 7 30.22 1024 10 16 0.00 0.00
1:56 pm 13:56 Sunny 66 18.9 55 12.8 68 68 E 10 17 30.23 1024 10 16 0.00 0.00
2:56 pm 14:56 Mostly Sunny 68 20 54 12.2 61 61 E 8 13 30.21 1023 10 16 0.00 0.00
3:56 pm 15:56 Partly Cloudy 69 20.6 55 12.8 61 61 E 10 17 30.20 1023 10 16 0.00 0.00
4:56 pm 16:56 Mostly Sunny 70 21.1 52 11.1 53 53 E 9 15 30.19 1022 10 16 0.00 0.00
5:56 pm 17:56 Sunny 69 20.6 51 10.6 53 53 E 8 13 30.18 1022 10 16 0.00 0.00
6:56 pm 18:56 Sunny 68 20 50 10 53 53 E 5 7 30.18 1022 10 16 0.00 0.00
7:56 pm 19:56 Sunny 68 20 50 10 53 53 ESE 8 13 30.17 1022 10 16 0.00 0.00
8:56 pm 20:56 Sunny 64 17.8 52 11.1 65 65 SE 5 7 30.19 1023 10 16 0.00 0.00
9:56 pm 21:56 Clear 60 15.6 53 11.7 78 78 S 5 7 30.21 1023 10 16 0.00 0.00
10:56 pm 22:56 Clear 58 14.4 53 11.7 84 84 S 5 7 30.22 1023 10 16 0.00 0.00
11:56 pm 23:56 Clear 59 15 53 11.7 81 81 SW 5 7 30.21 1023 10 16 0.00 0.00

Powered by AerisWeather